MOZHAETS 4 (RS-22)

Last updated on Thu Oct 30 2025 00:03:10 GMT+0000 (Coordinated Universal Time)

1 27939U 03042A 25302.55405301 .00001854 00000+0 29831-3 0 9997 2 27939 98.3378 115.5854 0010288 281.6201 148.9423 14.72776946181596
UTC large
Height (km)
Speed (km/s)
/
Latitude / Longitude
Inclination (degrees)
Orbital Period (minutes)
Azimuth
Elevation
Range (km)
Doppler Factor

Next 0 passes for location: London (51.5072 / 0.1276)

Sorry there are no passes over London.